TimeIST,TemperatureF,Dew PointF,Humidity,Sea Level PressureIn,VisibilityMPH,Wind Direction,Wind SpeedMPH,Gust SpeedMPH,PrecipitationIn,Events,Conditions,WindDirDegrees,DateUTC
1:00 AM,41,40,94,29.56,,WSW,6.7,,,,,240,2012-10-05 00:00:00
7:00 AM,42,40,90,29.63,16,West,8.9,,,,Partly Cloudy,260,2012-10-05 06:00:00
7:00 AM,41.0,41.0,100,29.59,6.2,West,9.2,-,N/A,,Partly Cloudy,260,2012-10-05 06:00:00
7:30 AM,41.0,41.0,100,29.62,6.2,WSW,9.2,-,N/A,,Partly Cloudy,250,2012-10-05 06:30:00
8:00 AM,41.0,41.0,100,29.62,6.2,WSW,8.1,-,N/A,,Partly Cloudy,250,2012-10-05 07:00:00
8:30 AM,41.0,39.2,93,29.62,6.2,WSW,9.2,-,N/A,,Partly Cloudy,250,2012-10-05 07:30:00
9:00 AM,42.8,41.0,93,29.65,6.2,WSW,9.2,-,N/A,,Partly Cloudy,250,2012-10-05 08:00:00
9:30 AM,46.4,42.8,87,29.65,6.2,West,10.4,-,N/A,,Partly Cloudy,260,2012-10-05 08:30:00
10:00 AM,44.6,42.8,93,29.68,6.2,WSW,8.1,-,N/A,,Scattered Clouds,240,2012-10-05 09:00:00
10:30 AM,48.2,42.8,82,29.68,6.2,WSW,6.9,-,N/A,,Partly Cloudy,250,2012-10-05 09:30:00
11:00 AM,50.0,44.6,82,29.68,6.2,West,9.2,-,N/A,,Partly Cloudy,260,2012-10-05 10:00:00
11:30 AM,50.0,44.6,82,29.68,6.2,WSW,8.1,-,N/A,,Partly Cloudy,240,2012-10-05 10:30:00
12:00 PM,51.8,44.6,76,29.71,6.2,WSW,9.2,-,N/A,,Scattered Clouds,240,2012-10-05 11:00:00
12:30 PM,51.8,42.8,71,29.71,6.2,WSW,8.1,-,N/A,,Partly Cloudy,250,2012-10-05 11:30:00
1:00 PM,52,44,66,29.73,7,WSW,8.9,,,,Mostly Cloudy,250,2012-10-05 12:00:00
1:00 PM,51.8,44.6,76,29.71,6.2,WSW,8.1,-,N/A,,Mostly Cloudy,250,2012-10-05 12:00:00
1:30 PM,50.0,44.6,82,29.71,6.2,WSW,6.9,-,N/A,,Scattered Clouds,240,2012-10-05 12:30:00
2:00 PM,51.8,44.6,76,29.71,6.2,West,5.8,-,N/A,,Mostly Cloudy,270,2012-10-05 13:00:00
2:30 PM,51.8,41.0,67,29.74,6.2,WNW,4.6,-,N/A,,Mostly Cloudy,290,2012-10-05 13:30:00
3:00 PM,50.0,44.6,82,29.74,6.2,North,3.5,-,N/A,,Scattered Clouds,10,2012-10-05 14:00:00
3:30 PM,51.8,42.8,71,29.74,6.2,WNW,6.9,-,N/A,,Scattered Clouds,290,2012-10-05 14:30:00
4:00 PM,53.6,42.8,67,29.71,6.2,NW,5.8,-,N/A,,Scattered Clouds,320,2012-10-05 15:00:00
4:30 PM,48.2,44.6,87,29.74,6.2,NW,16.1,-,N/A,Rain,Light Rain Showers,310,2012-10-05 15:30:00
5:00 PM,48.2,44.6,87,29.74,6.2,NNW,4.6,-,N/A,,Scattered Clouds,330,2012-10-05 16:00:00
5:30 PM,50.0,44.6,82,29.74,6.2,NW,3.5,-,N/A,,Scattered Clouds,310,2012-10-05 16:30:00
6:00 PM,48.2,46.4,93,29.74,6.2,NW,4.6,-,N/A,,Scattered Clouds,310,2012-10-05 17:00:00
7:00 PM,48,44,83,29.78,25,NW,4.5,,,,Partly Cloudy,320,2012-10-05 18:00:00
7:00 PM,48.2,44.6,87,29.74,6.2,NW,4.6,-,N/A,,Partly Cloudy,320,2012-10-05 18:00:00